Showing default

DMSP 5D-2 F13 (USA 109), 23533

Orbit data source: Space-Track

DMSP 5D-2 F13 (USA 109), 23533 is a payload satellite owned by USAF SMC (US) in SSO that was launched on Fri, 24 Mar 1995 UTC via an ATLAS E launch vehicle from the Air Force Western Test Range (AFWTR). Payload-class satellites include a variety of spacecraft equipped with specific instruments for various scientific and technological missions. These include communications satellites like Starlink; space stations such as the ISS; scientific satellites like the Hubble; Earth observation satellites from companies like Planet Labs, Umbra, and HawkEye 360; GPS; miniature CubeSats for education and research; and military/defense satellites.

Loading next visibility...
Identifier
23533, 1995-015A
Orbit
SSO
Country
Flag of USUS
Related business
Manufacturer
LMT/EW
Mission
Non-operational Defense Weather
Bus & Motor
BLOCK 5D, STAR 37S
Mass
1,456 kg wet, 749 kg dry
Launch date (UTC)
1995-03-24 (30 years ago)
Launch vehicle
ATLAS E
Launch site
Air Force Western Test Range (AFWTR)
Object type
Payload
Rocket body
Debris
Shape & HBR
Cyl + 1 Pan, 2.5 m
Radar Cross Section
4.290 m², Large (>1 m²)

Expand to show TLE details & history
Last TLE update: 19 hours ago

TLE from 19 hours ago
0 DMSP 5D-2 F13 (USA 109)
1 23533U 95015A   25261.03169539  .00000099  00000-0  71422-4 0  9996
2 23533  98.8153 272.5471 0006248 203.4177 215.1182 14.16929059574657
Epoch: 2025-09-18T00:45Z
TLE epoch observation values (Epoch: 2025-09-18T00:45:38.481Z)
Latitude
57.50616°
Longitude
-110.07891°
Altitude
849.073 km
Speed
7.432 km/s
True Right ascension
17h 14m 07s
True Declination
57° 21' 08"
Sunlit
Object was in daylight at epoch
Visualization orbit readout
Latitude
Unknown
Longitude
Unknown
Altitude
Unknown
Speed
Unknown
Apparent Right ascension
Unknown
Apparent Declination
Unknown
Sunlit
N/A
Visualization observer readout
Local Sidereal Time
12:48:14
Azimuth
Unknown
Elevation
Unknown
Doppler factor
Unknown
Orbital elements
Apogee altitude
837.43 km
Perigee altitude
828.42 km
Semi-major axis
7,211.062 km
Eccentricity
0.00062
Inclination
98.8153°
RAAN
272.5471°
Arg. of periapsis
203.4177°
True anomaly
215.07704°
Mean anomaly
215.1182°
Eccentric anomaly
215.09762°
Mean motion
3.54441 °/min
Orbital period
101.57 mins
BSTAR
0.000071422
Loading maneuver chart data...
Computing Atmospheric mass density...

Documentation

Showing up to 5 results
|